Northeast Philadelphia, PA

5:44 PM EST on February 25, 2020 (GMT -0500)
Northeast Philadelphia

Weather History for KPNE - December, 2019

Change the Weather History Date:

Friday, December 6, 2019

  Actual Average Record
Temperature  
Mean Temperature 43 °F -  
Max Temperature 50 °F 46 °F 73 °F (2001)
Min Temperature 36 °F 31 °F 19 °F (2002)
Degree Days  
Heating Degree Days 22    
Moisture  
Dew Point 28 °F    
Average Humidity 54    
Maximum Humidity 65    
Minimum Humidity 39    
Precipitation  
Precipitation 0.01 in - - ()
Sea Level Pressure  
Sea Level Pressure 30.11 in    
Wind  
Wind Speed 6 mph ()    
Max Wind Speed 17 mph    
Max Gust Speed 25 mph    
Visibility 10.0 miles    
Events Rain    
Averages and records for this station are not official NWS values.
T = Trace of Precipitation, MM = Missing Value Source: Averaged Metar Reports

Daily Weather History Graph

Daily Weather History Graph

Search for Another Location

Airport or City:

Astronomy

Dec. 06, 2019 Rise Set
Actual Time 7:07 AM EST 4:34 PM EST
Civil Twilight 6:37 AM EST 5:04 PM EST
Nautical Twilight 6:03 AM EST 5:38 PM EST
Astronomical Twilight 5:30 AM EST 6:11 PM EST
Moon 1:51 PM EST (12/6) 1:19 AM EST (12/6)
Length of Visible Light 10h 27m
Length of Day
9h 26m
Waxing Gibbous, 72% of the Moon is Illuminated
Dec 6
Waxing Gibbous
Dec 12
Full
Dec 18
Last Quarter
Dec 26
New
Jan 2
First Quarter

Hourly Weather History & Observations

Time (EST) Temp. Windchill Dew Point Humidity Pressure Visibility Wind Dir Wind Speed Gust Speed Precip Events Conditions
12:54 AM 37.0 °F - 21.0 °F 52% 30.16 in 10.0 mi Calm Calm - N/A   Clear
1:54 AM 36.0 °F 31.1 °F 21.9 °F 57% 30.17 in 10.0 mi WSW 5.8 mph - N/A   Clear
3:54 AM 37.9 °F 33.5 °F 23.0 °F 55% 30.17 in 10.0 mi WSW 5.8 mph - N/A   Mostly Cloudy
4:54 AM 37.0 °F 34.5 °F 24.1 °F 59% 30.17 in 10.0 mi WSW 3.5 mph - N/A   Mostly Cloudy
5:54 AM 36.0 °F - 24.1 °F 62% 30.17 in 10.0 mi Calm Calm - N/A   Clear
6:54 AM 36.0 °F 33.3 °F 25.0 °F 64% 30.17 in 10.0 mi Variable 3.5 mph - N/A   Clear
7:54 AM 37.0 °F 33.3 °F 26.1 °F 65% 30.17 in 10.0 mi SSW 4.6 mph - N/A   Mostly Cloudy
8:54 AM 39.9 °F 36.7 °F 28.0 °F 63% 30.17 in 10.0 mi SSW 4.6 mph - N/A   Overcast
9:54 AM 42.1 °F 37.7 °F 26.1 °F 53% 30.15 in 10.0 mi SSW 6.9 mph - N/A   Partly Cloudy
10:54 AM 46.0 °F 40.6 °F 27.0 °F 47% 30.12 in 10.0 mi SSW 11.5 mph 17.3 mph N/A   Clear
11:54 AM 48.0 °F - 26.1 °F 42% 30.07 in 10.0 mi SW 12.7 mph 25.3 mph N/A   Scattered Clouds
12:54 PM 50.0 °F - 26.1 °F 39% 30.03 in 10.0 mi SW 17.3 mph 25.3 mph N/A   Mostly Cloudy
1:54 PM 50.0 °F - 28.9 °F 44% 30.01 in 10.0 mi SW 16.1 mph 19.6 mph N/A   Overcast
2:54 PM 50.0 °F - 30.0 °F 46% 30.01 in 10.0 mi SW 11.5 mph - N/A   Overcast
4:54 PM 48.9 °F - 35.1 °F 59% 30.00 in 10.0 mi SW 9.2 mph - 0.01 in Rain Light Rain
5:54 PM 48.9 °F - 35.1 °F 59% 30.01 in 10.0 mi SW 5.8 mph - 0.00 in   Overcast
6:54 PM 50.0 °F - 34.0 °F 54% 30.05 in 10.0 mi WNW 9.2 mph - N/A   Overcast
7:54 PM 50.0 °F - 34.0 °F 54% 30.08 in 10.0 mi WNW 8.1 mph - N/A   Overcast
8:54 PM 50.0 °F - 32.0 °F 50% 30.10 in 10.0 mi NW 11.5 mph 20.7 mph N/A   Overcast
10:54 PM 43.0 °F 36.0 °F 26.1 °F 51% 30.17 in 10.0 mi North 13.8 mph - N/A   Clear
11:54 PM 39.9 °F 32.5 °F 24.1 °F 53% 30.19 in 10.0 mi North 12.7 mph - N/A   Clear